Location: Hamayl? Da??
(36.7028°N, 30.1716°E)
Time: 23:54:20
(UTC+00:00)

COSMOS 2406 - Pass Details

Date: 04 August 2024
Orbit: 846 x 859 km, 71.0° (Epoch: 18 September)

Event Time Altitude Azimuth Distance (km) Brightness Sun altitude
Rises 17:59:53 0° 332° (NNW) 3,413 7.5 -11.1°
Reaches altitude 10° 18:02:23 10° 327° (NNW) 2,475 6.7 -11.6°
Maximum altitude 18:07:50 50° 254° (WSW) 1,076 4.1 -12.5°
Drops below altitude 10° 18:13:17 10° 180° (S) 2,467 5.3 -13.4°
Enters shadow 18:15:02 - 176° (S) 3,120 5.8 -13.7°
